CW6344 Weather Reports


time (UTC)temp
F
wind
direction
speed
knots
gust
knots
rain 1hr
in
rain 24hr
in
rain mn
in
humidity
%
barometer
mb
20260906224408 76 170 0.0 0.0 0.00 0.00 0.00 74 1014.5
20260906223408 76 20 0.0 0.0 0.00 0.00 0.00 75 1014.5
20260906222508 77 177 0.0 0.0 0.00 0.00 0.00 74 1014.5
20260906220408 78 355 0.0 0.0 0.00 0.00 0.00 69 1014.5
20260906215408 78 355 0.0 0.9 0.00 0.00 0.00 69 1014.5
20260906214408 79 280 0.0 2.6 0.00 0.00 0.00 67 1014.5
20260906213408 79 274 0.0 0.0 0.00 0.00 0.00 69 1014.5
20260906212408 79 293 0.0 0.0 0.00 0.00 0.00 68 1014.5
20260906211409 79 293 0.0 2.6 0.00 0.00 0.00 66 1014.6
20260906210408 80 5 0.0 0.9 0.00 0.00 0.00 66 1014.6
20260906204408 80 254 0.0 1.7 0.00 0.00 0.00 65 1014.5
20260906203408 79 106 0.0 1.7 0.00 0.00 0.00 68 1014.4
20260906202408 80 291 0.0 0.9 0.00 0.00 0.00 66 1014.5
20260906200408 80 78 0.0 0.9 0.00 0.00 0.00 69 1014.4
20260906195409 80 44 0.9 1.7 0.00 0.00 0.00 67 1014.4
20260906194408 80 319 1.7 1.7 0.00 0.00 0.00 70 1014.5
20260906193409 80 227 0.9 2.6 0.00 0.00 0.00 69 1014.5
20260906192408 80 263 0.0 2.6 0.00 0.00 0.00 70 1014.5
20260906190409 80 294 0.9 2.6 0.00 0.00 0.00 69 1014.6
20260906185409 80 286 1.7 1.7 0.00 0.00 0.00 67 1014.7
20260906184409 80 337 0.0 2.6 0.00 0.00 0.00 67 1014.7
20260906182409 80 286 0.0 2.6 0.00 0.00 0.00 69 1014.7
20260906181408 79 320 1.7 2.6 0.00 0.00 0.00 65 1014.8
20260906180409 79 146 0.9 0.9 0.00 0.00 0.00 66 1014.8
20260906174409 79 30 1.7 4.3 0.00 0.00 0.00 66 1014.8
20260906173409 79 60 1.7 2.6 0.00 0.00 0.00 68 1014.9
20260906172409 79 326 1.7 2.6 0.00 0.00 0.00 67 1015.0
20260906171409 79 283 1.7 2.6 0.00 0.00 0.00 71 1015.1
20260906170409 79 275 0.0 2.6 0.00 0.00 0.00 71 1015.1
20260906165409 78 286 0.9 2.6 0.00 0.00 0.00 72 1015.2
20260906164439 78 17 1.7 1.7 0.00 0.00 0.00 73 1015.2
20260906162409 78 304 1.7 2.6 0.00 0.00 0.00 72 1015.0
20260906161409 78 302 0.0 2.6 0.00 0.00 0.00 74 1015.1
20260906160409 78 317 2.6 3.5 0.00 0.00 0.00 71 1015.2
20260906155409 78 130 1.7 2.6 0.00 0.00 0.00 76 1015.1
20260906154409 77 254 0.0 0.9 0.00 0.00 0.00 76 1015.1
20260906153409 76 304 2.6 5.2 0.00 0.00 0.00 74 1015.3
20260906152439 76 341 2.6 2.6 0.00 0.00 0.00 76 1015.3
20260906150409 76 200 1.7 3.5 0.00 0.00 0.00 77 1015.1
20260906144439 75 25 0.0 0.0 0.00 0.00 0.00 77 1015.0
20260906143409 76 285 0.0 0.9 0.00 0.00 0.00 77 1014.9
20260906142409 75 282 0.9 2.6 0.00 0.00 0.00 78 1014.8
20260906141409 75 32 0.0 0.0 0.00 0.00 0.00 77 1014.8
20260906140409 75 313 2.6 2.6 0.00 0.00 0.00 79 1014.6
20260906134409 74 306 0.9 2.6 0.00 0.00 0.00 79 1014.6
20260906133409 74 339 0.0 0.0 0.00 0.00 0.00 80 1014.5
20260906132409 74 333 0.0 0.0 0.00 0.00 0.00 83 1014.4
20260906131409 73 342 0.0 0.0 0.00 0.00 0.00 84 1014.5
20260906130439 73 293 0.0 2.6 0.00 0.00 0.00 84 1014.4
20260906125409 72 331 0.0 0.0 0.00 0.00 0.00 86 1014.4
20260906124409 71 268 0.0 2.6 0.00 0.00 0.00 88 1014.4
20260906123409 70 267 0.0 0.0 0.00 0.00 0.00 91 1014.4
20260906122409 70 180 0.0 0.0 0.00 0.00 0.00 91 1014.3
20260906121409 69 162 0.0 0.0 0.00 0.00 0.00 92 1014.2
20260906120409 68 162 0.0 0.0 0.00 0.00 0.00 93 1014.2
20260906115409 67 162 0.0 0.9 0.00 0.00 0.00 93 1014.1
20260906114439 67 165 0.0 0.0 0.00 0.00 0.00 93 1014.0
20260906113409 66 165 0.0 0.0 0.00 0.00 0.00 93 1014.1
20260906112409 66 165 0.0 0.0 0.00 0.00 0.00 93 1013.9
20260906111409 66 165 0.0 0.0 0.00 0.00 0.00 93 1013.7
20260906110409 65 165 0.0 0.0 0.00 0.00 0.00 93 1013.6
20260906105409 66 165 0.0 0.0 0.00 0.00 0.00 93 1013.5
20260906104409 65 134 0.0 0.0 0.00 0.00 0.00 93 1013.4
20260906103409 65 98 0.0 0.0 0.00 0.00 0.00 93 1013.3
20260906102409 65 132 0.0 0.0 0.00 0.00 0.00 93 1013.2
20260906101409 65 132 0.0 0.0 0.00 0.00 0.00 93 1013.1
20260906100609 65 132 0.0 0.0 0.00 0.00 0.00 93 1013.1
20260906094409 65 132 0.0 0.0 0.00 0.00 0.00 93 1012.8
20260906093409 65 132 0.0 0.0 0.00 0.00 0.00 93 1012.8
20260906092409 66 132 0.0 0.0 0.00 0.00 0.00 93 1012.6
20260906091409 66 132 0.0 0.0 0.00 0.00 0.00 92 1012.6
20260906090409 66 132 0.0 0.0 0.00 0.00 0.00 92 1012.4
20260906085409 66 132 0.0 0.0 0.00 0.00 0.00 92 1012.3
20260906084539 66 132 0.0 0.0 0.00 0.00 0.00 92 1012.2
20260906083409 66 132 0.0 0.0 0.00 0.00 0.00 92 1012.3
20260906082409 66 132 0.0 0.0 0.00 0.00 0.00 92 1012.2
20260906080409 66 132 0.0 0.0 0.00 0.00 0.00 92 1012.2
20260906075409 66 132 0.0 0.0 0.00 0.00 0.00 92 1012.2
20260906074409 66 132 0.0 0.0 0.00 0.00 0.00 92 1012.1
20260906073409 67 132 0.0 0.0 0.00 0.00 0.00 92 1012.1
20260906072409 67 132 0.0 0.0 0.00 0.00 0.00 92 1012.1
20260906070409 67 132 0.0 0.0 0.00 0.00 0.00 92 1012.0
20260906065409 67 132 0.0 0.0 0.00 0.00 0.00 92 1012.0
20260906064409 68 132 0.0 0.0 0.00 0.00 0.00 92 1012.0
20260906063409 68 132 0.0 0.0 0.00 0.00 0.00 92 1012.1
20260906062409 68 132 0.0 0.0 0.00 0.00 0.00 92 1012.0
20260906061409 68 132 0.0 0.0 0.00 0.00 0.00 92 1012.1
20260906060410 68 132 0.0 0.0 0.00 0.00 0.00 92 1012.1
20260906055409 68 132 0.0 0.0 0.00 0.00 0.00 92 1012.2
20260906054409 69 132 0.0 0.0 0.00 0.00 0.00 92 1012.2
20260906053409 69 132 0.0 0.0 0.00 0.00 0.00 91 1012.2
20260906052409 69 132 0.0 0.0 0.00 0.00 0.00 92 1012.2
20260906051409 69 132 0.0 0.0 0.00 0.00 0.00 92 1012.4
20260906050439 69 132 0.0 0.0 0.00 0.00 0.00 91 1012.4
20260906045409 70 132 0.0 0.0 0.00 0.00 0.00 91 1012.4
20260906044409 70 132 0.0 0.0 0.00 0.00 0.00 91 1012.5
20260906043409 70 132 0.0 0.0 0.00 0.00 0.00 91 1012.5
20260906042439 70 132 0.0 0.0 0.00 0.00 0.00 91 1012.5
20260906041409 70 132 0.0 0.0 0.00 0.00 0.00 91 1012.5
20260906040410 70 132 0.0 0.0 0.00 0.00 0.00 91 1012.4
20260906035409 70 132 0.0 0.0 0.00 0.00 0.00 90 1012.4
20260906034409 70 132 0.0 0.0 0.00 0.00 0.00 90 1012.5
20260906033409 70 132 0.0 0.0 0.00 0.00 0.00 90 1012.5
20260906032409 70 132 0.0 0.0 0.00 0.00 0.00 90 1012.6
20260906031409 70 132 0.0 0.0 0.00 0.00 0.00 89 1012.5
20260906030440 71 132 0.0 0.0 0.00 0.00 0.00 89 1012.4
20260906025410 71 132 0.0 0.0 0.00 0.00 0.00 89 1012.4
20260906024409 71 132 0.0 0.0 0.00 0.00 0.00 88 1012.4
20260906023410 71 132 0.0 0.0 0.00 0.00 0.00 88 1012.5
20260906022410 72 132 0.0 0.0 0.00 0.00 0.00 87 1012.5
20260906021409 72 132 0.0 0.0 0.00 0.00 0.00 87 1012.5
20260906020409 72 132 0.0 0.0 0.00 0.00 0.00 87 1012.5
20260906015410 72 132 0.0 0.0 0.00 0.00 0.00 87 1012.5
20260906014410 73 132 0.0 0.0 0.00 0.00 0.00 86 1012.3
20260906013410 73 132 0.0 0.0 0.00 0.00 0.00 86 1012.2
20260906012409 73 132 0.0 0.0 0.00 0.00 0.00 86 1012.2
20260906011410 72 132 0.0 0.0 0.00 0.00 0.00 87 1012.0
20260906010409 73 132 0.0 0.0 0.00 0.00 0.00 87 1011.8
20260906005411 73 132 0.0 0.0 0.00 0.00 0.00 86 1011.6
20260906004410 73 132 0.0 0.0 0.00 0.00 0.00 86 1011.6
20260906003410 74 132 0.0 0.0 0.00 0.00 0.00 86 1011.5
20260906002440 73 132 0.0 0.0 0.00 0.00 0.00 86 1011.4
20260906001410 74 132 0.0 0.0 0.00 0.00 0.00 86 1011.5
20260906000411 75 132 0.0 0.0 0.00 0.00 0.00 85 1011.3
20260905235410 75 132 0.0 0.0 0.00 0.00 0.00 85 1011.5
20260905234440 75 132 0.0 0.0 0.00 0.00 0.00 85 1011.4
20260905233410 75 132 0.0 0.0 0.00 0.00 0.00 84 1011.4
20260905232409 75 128 0.0 0.0 0.00 0.00 0.00 84 1011.4
20260905231410 75 310 0.0 0.0 0.00 0.00 0.00 84 1011.4
20260905230410 76 284 0.0 0.0 0.00 0.00 0.00 82 1011.4
20260905225410 76 284 0.0 0.0 0.00 0.00 0.00 83 1011.4